GW6129 Weather Reports


time (UTC)temp
C
wind
direction
speed
KPH
gust
KPH
rain 1hr
cm
rain 24hr
cm
rain mn
cm
humidity
%
barometer
mb
20260507131009 13 17 8.0 27.4 0.00 0.00 0.00 84 1018.8
20260507130006 13 38 9.7 20.9 0.00 0.00 0.00 84 1018.7
20260507125508 13 39 8.0 19.3 0.00 0.00 0.00 84 1018.4
20260507124006 13 345 8.0 19.3 0.00 0.00 0.00 85 1018.0
20260507123503 13 26 8.0 17.7 0.00 0.00 0.00 85 1018.2
20260507123005 13 9 4.8 17.7 0.00 0.00 0.00 85 1018.1
20260507122504 13 9 4.8 17.7 0.00 0.00 0.00 85 1017.8
20260507122006 13 24 9.7 24.1 0.00 0.00 0.00 84 1017.5
20260507121510 13 12 9.7 24.1 0.00 0.00 0.00 84 1017.5
20260507121004 13 9 6.4 17.7 0.00 0.00 0.00 84 1017.5
20260507120505 13 10 6.4 17.7 0.00 0.00 0.00 84 1017.3
20260507120012 13 36 9.7 20.9 0.00 0.00 0.00 84 1017.3
20260507115503 13 352 11.3 20.9 0.00 0.00 0.00 84 1017.3
20260507115008 13 9 8.0 19.3 0.00 0.00 0.00 84 1017.2
20260507114513 13 46 9.7 19.3 0.00 0.00 0.00 84 1017.3
20260507114008 13 342 6.4 16.1 0.00 0.00 0.00 85 1017.4
20260507113502 13 360 3.2 20.9 0.00 0.00 0.00 85 1017.5
20260507113013 13 342 6.4 20.9 0.00 0.00 0.00 85 1017.4
20260507112506 14 347 3.2 17.7 0.00 0.00 0.00 85 1017.3
20260507112004 14 19 8.0 17.7 0.00 0.00 0.00 85 1017.1
20260507111507 14 344 8.0 20.9 0.00 0.00 0.00 85 1017.0
20260507111004 14 351 6.4 20.9 0.00 0.00 0.00 85 1016.4
20260507110503 14 9 8.0 16.1 0.00 0.00 0.00 85 1016.5
20260507110006 14 33 4.8 16.1 0.00 0.00 0.00 85 1016.6
20260507105505 14 327 8.0 16.1 0.00 0.00 0.00 85 1016.9
20260507105006 14 338 9.7 20.9 0.00 0.00 0.00 85 1016.8
20260507104508 14 326 9.7 20.9 0.00 0.00 0.00 85 1016.5
20260507104006 14 360 8.0 24.1 0.00 0.00 0.00 85 1016.4
20260507103508 14 9 8.0 24.1 0.00 0.00 0.00 86 1016.4
20260507103021 14 53 9.7 22.5 0.00 0.00 0.00 86 1016.5
20260507102503 14 324 8.0 16.1 0.00 0.00 0.00 87 1016.5
20260507102008 15 345 9.7 22.5 0.00 0.00 0.00 87 1016.8
20260507101520 15 9 9.7 22.5 0.00 0.00 0.00 88 1016.7
20260507101004 15 311 4.8 11.3 0.00 0.00 0.00 89 1016.5
20260507100504 15 360 6.4 11.3 0.00 0.00 0.00 89 1016.4
20260507100011 15 342 4.8 9.7 0.00 0.00 0.00 89 1016.5
20260507095505 15 338 4.8 9.7 0.00 0.00 0.00 89 1016.5
20260507095008 15 352 3.2 4.8 0.00 0.00 0.00 89 1016.8
20260507094512 15 267 1.6 9.7 0.00 0.00 0.00 89 1017.0
20260507094007 15 350 1.6 12.9 0.00 0.00 0.00 89 1016.6
20260507093503 15 298 3.2 12.9 0.00 0.00 0.00 89 1015.9
20260507093017 15 24 4.8 11.3 0.00 0.00 0.00 90 1015.8
20260507092508 15 331 3.2 8.0 0.00 0.00 0.00 90 1015.8
20260507092010 15 309 3.2 8.0 0.00 0.00 0.00 90 1015.5
20260507091506 15 314 3.2 6.4 0.00 0.00 0.00 90 1015.5
20260507091009 15 352 3.2 6.4 0.00 0.00 0.00 90 1015.8
20260507090508 15 287 1.6 6.4 0.00 0.00 0.00 90 1015.8
20260507090011 15 5 3.2 6.4 0.00 0.00 0.00 90 1015.6
20260507085505 15 323 0.0 9.7 0.00 0.00 0.00 90 1015.5
20260507085004 15 9 4.8 9.7 0.00 0.00 0.00 90 1015.0
20260507084514 15 33 3.2 6.4 0.00 0.00 0.00 90 1015.4
20260507084002 15 334 3.2 8.0 0.00 0.00 0.00 90 1015.4
20260507083506 15 32 1.6 12.9 0.00 0.00 0.00 90 1015.4
20260507083016 15 345 4.8 12.9 0.00 0.00 0.00 90 1015.0
20260507082508 15 13 8.0 12.9 0.00 0.00 0.00 89 1014.9
20260507082010 15 31 4.8 12.9 0.00 0.00 0.00 89 1015.2
20260507081523 15 360 3.2 12.9 0.00 0.00 0.00 89 1015.1
20260507081006 15 36 8.0 11.3 0.00 0.00 0.00 88 1014.9
20260507080015 15 67 4.8 14.5 0.00 0.00 0.00 88 1014.7
20260507075508 15 16 3.2 6.4 0.00 0.00 0.00 88 1015.3
20260507075004 15 12 1.6 8.0 0.00 0.00 0.00 88 1015.6
20260507074507 15 351 4.8 12.9 0.00 0.00 0.00 87 1015.4
20260507074007 15 352 4.8 12.9 0.00 0.00 0.00 87 1015.4
20260507073507 15 29 4.8 12.9 0.00 0.00 0.00 87 1015.8
20260507073009 15 24 4.8 12.9 0.00 0.00 0.00 87 1015.6
20260507072506 15 58 6.4 24.1 0.00 0.00 0.00 87 1015.4
20260507072008 15 9 6.4 24.1 0.00 0.00 0.00 87 1014.9
20260507071516 15 59 8.0 24.1 0.00 0.00 0.00 87 1014.9
20260507071008 15 32 9.7 17.7 0.00 0.00 0.00 86 1014.6
20260507070507 15 13 8.0 17.7 0.00 0.00 0.00 86 1014.9
20260507070022 15 5 4.8 17.7 0.00 0.00 0.00 86 1015.3
20260507065007 15 44 4.8 11.3 0.00 0.00 0.00 86 1015.6
20260507064523 15 9 4.8 11.3 0.00 0.00 0.00 86 1015.3
20260507064009 15 15 6.4 11.3 0.00 0.00 0.00 86 1015.4
20260507063505 15 21 4.8 19.3 0.00 0.00 0.00 86 1015.6
20260507063013 15 17 8.0 19.3 0.00 0.00 0.00 86 1015.8
20260507062506 15 48 6.4 16.1 0.00 0.00 0.00 86 1015.6
20260507062007 15 360 4.8 16.1 0.00 0.00 0.00 85 1015.3
20260507061515 15 10 8.0 19.3 0.00 0.00 0.00 85 1015.2
20260507061009 15 19 11.3 19.3 0.00 0.00 0.00 85 1015.2
20260507060507 15 19 8.0 17.7 0.00 0.00 0.00 85 1015.3
20260507060012 15 360 4.8 17.7 0.00 0.00 0.00 85 1015.3
20260507055510 15 30 4.8 17.7 0.00 0.00 0.00 85 1015.5
20260507055008 15 28 6.4 17.7 0.00 0.00 0.00 85 1015.2
20260507054007 15 28 9.7 17.7 0.00 0.00 0.00 84 1015.5
20260507053513 15 23 6.4 19.3 0.00 0.00 0.00 84 1015.6
20260507053024 16 352 8.0 20.9 0.00 0.00 0.00 84 1015.6
20260507052506 16 360 12.9 20.9 0.00 0.00 0.00 84 1015.3
20260507052010 16 336 6.4 17.7 0.00 0.00 0.00 84 1015.7
20260507051515 16 39 4.8 16.1 0.00 0.00 0.00 84 1015.6
20260507051008 16 61 8.0 16.1 0.00 0.00 0.00 84 1015.9
20260507050505 16 348 6.4 17.7 0.00 0.00 0.00 84 1015.9
20260507050016 16 333 8.0 17.7 0.00 0.00 0.00 84 1015.4
20260507045509 16 15 8.0 14.5 0.00 0.00 0.00 83 1015.7
20260507045006 16 9 8.0 17.7 0.00 0.00 0.00 83 1015.2
20260507044538 16 9 6.4 17.7 0.00 0.00 0.00 83 1015.3
20260507044010 16 32 6.4 17.7 0.00 0.00 0.00 83 1015.6
20260507043510 16 11 8.0 17.7 0.00 0.00 0.00 83 1015.9
20260507043004 16 17 8.0 17.7 0.00 0.00 0.00 83 1015.7
20260507042504 16 352 6.4 14.5 0.00 0.00 0.00 83 1016.0
20260507042006 16 9 4.8 12.9 0.00 0.00 0.00 83 1015.5
20260507041513 16 5 4.8 16.1 0.00 0.00 0.00 83 1016.0
20260507041005 16 5 8.0 17.7 0.00 0.00 0.00 83 1014.8
20260507040504 16 35 6.4 17.7 0.00 0.00 0.00 83 1015.3
20260507040011 16 46 6.4 16.1 0.00 0.00 0.00 83 1015.5
20260507035507 16 9 4.8 14.5 0.00 0.00 0.00 83 1015.3
20260507035014 16 27 8.0 14.5 0.00 0.00 0.00 83 1015.1
20260507034508 16 17 4.8 12.9 0.00 0.00 0.00 83 1015.5
20260507034007 16 32 6.4 14.5 0.00 0.00 0.00 82 1015.3
20260507033508 16 360 4.8 16.1 0.00 0.00 0.00 82 1015.0
20260507033006 16 38 8.0 16.1 0.00 0.00 0.00 82 1015.2
20260507032504 16 9 6.4 19.3 0.00 0.00 0.00 82 1015.0
20260507032005 16 17 8.0 19.3 0.00 0.00 0.00 82 1015.0
20260507031508 16 25 6.4 14.5 0.00 0.00 0.00 82 1015.4
20260507031006 16 84 6.4 14.5 0.00 0.00 0.00 82 1015.4
20260507030509 16 17 3.2 16.1 0.00 0.00 0.00 83 1015.3
20260507030016 16 325 6.4 16.1 0.00 0.00 0.00 83 1014.8
20260507025502 16 32 3.2 16.1 0.00 0.00 0.00 83 1014.6
20260507025007 16 24 6.4 16.1 0.00 0.00 0.00 83 1014.7
20260507024519 16 9 4.8 9.7 0.00 0.00 0.00 83 1014.6
20260507024006 16 11 4.8 11.3 0.00 0.00 0.00 83 1014.6
20260507023504 16 331 4.8 11.3 0.00 0.00 0.00 83 1014.9
20260507023012 16 347 3.2 16.1 0.00 0.00 0.00 83 1014.8
20260507022513 16 352 3.2 16.1 0.00 0.00 0.00 83 1014.5
20260507022003 16 30 4.8 14.5 0.00 0.00 0.00 82 1014.5
20260507021514 16 329 3.2 14.5 0.00 0.00 0.00 82 1014.4
20260507021005 16 22 3.2 11.3 0.00 0.00 0.00 83 1014.5
20260507020505 16 338 6.4 11.3 0.00 0.00 0.00 82 1014.1
20260507020010 16 350 3.2 14.5 0.00 0.00 0.00 83 1013.8
20260507015506 16 324 4.8 14.5 0.00 0.00 0.00 83 1013.7
20260507015008 16 330 6.4 12.9 0.00 0.00 0.00 83 1013.6
20260507014520 16 360 3.2 9.7 0.00 0.00 0.00 83 1013.8
20260507014006 16 349 4.8 12.9 0.00 0.00 0.00 83 1013.4
20260507013508 16 22 3.2 12.9 0.00 0.00 0.00 83 1013.3
20260507013019 16 323 4.8 11.3 0.00 0.00 0.00 83 1013.2
20260507012508 16 348 4.8 12.9 0.00 0.00 0.00 83 1013.0
20260507012008 16 339 4.8 14.5 0.00 0.00 0.00 83 1013.0
20260507011521 16 350 6.4 14.5 0.00 0.00 0.00 83 1013.0
20260507011012 16 348 4.8 14.5 0.00 0.00 0.00 82 1013.0
20260507010010 16 5 6.4 14.5 0.00 0.00 0.00 83 1012.9
20260507005503 16 17 4.8 16.1 0.00 0.00 0.00 83 1012.8
20260507005006 16 16 6.4 16.1 0.00 0.00 0.00 82 1012.8
20260507004515 16 333 4.8 16.1 0.00 0.00 0.00 82 1012.8
20260507004009 16 15 6.4 16.1 0.00 0.00 0.00 82 1012.8
20260507003507 16 302 4.8 14.5 0.00 0.00 0.00 82 1012.7
20260507003020 16 316 6.4 12.9 0.00 0.00 0.00 82 1012.4
20260507002509 16 323 6.4 12.9 0.00 0.00 0.00 82 1012.6
20260507002011 16 9 6.4 16.1 0.00 0.00 0.00 82 1012.6
20260507001520 16 25 6.4 16.1 0.00 0.00 0.00 82 1012.5
20260507001007 16 344 6.4 14.5 0.00 0.00 0.00 82 1012.4
20260507000508 16 17 6.4 14.5 0.00 0.00 0.00 82 1012.5
20260507000026 16 340 3.2 14.5 0.00 0.00 0.00 82 1012.4
20260506235506 16 339 4.8 16.1 0.00 0.00 0.00 82 1012.6
20260506235007 16 9 6.4 16.1 0.00 0.00 0.00 81 1012.6
20260506234514 16 19 8.0 16.1 0.00 0.00 0.00 81 1012.2
20260506234005 16 33 4.8 16.1 0.00 0.00 0.00 81 1012.5
20260506233506 16 9 3.2 16.1 0.00 0.00 0.00 82 1012.4
20260506233019 16 336 6.4 14.5 0.00 0.00 0.00 81 1012.3
20260506232507 16 333 6.4 17.7 0.00 0.00 0.00 81 1012.2
20260506232008 16 336 4.8 17.7 0.00 0.00 0.00 81 1012.4
20260506231522 16 323 8.0 20.9 0.00 0.00 0.00 81 1012.2
20260506231007 16 343 6.4 20.9 0.00 0.00 0.00 81 1012.1
20260506230505 16 34 6.4 14.5 0.00 0.00 0.00 80 1012.0
20260506230019 17 331 6.4 14.5 0.00 0.00 0.00 80 1012.1
20260506225507 16 330 6.4 17.7 0.00 0.00 0.00 80 1012.2
20260506225007 17 24 4.8 17.7 0.00 0.00 0.00 80 1012.3
20260506224007 17 18 11.3 20.9 0.00 0.00 0.00 78 1012.0
20260506223506 17 340 8.0 17.7 0.00 0.00 0.00 79 1011.9
20260506223012 17 10 8.0 17.7 0.00 0.00 0.00 78 1011.9
20260506222509 17 21 8.0 16.1 0.00 0.00 0.00 79 1012.0
20260506222009 17 352 6.4 19.3 0.00 0.00 0.00 79 1012.0
20260506221517 17 10 9.7 19.3 0.00 0.00 0.00 79 1012.0
20260506221007 17 350 8.0 17.7 0.00 0.00 0.00 79 1012.0
20260506220511 17 323 8.0 17.7 0.00 0.00 0.00 78 1011.9
20260506220026 17 11 8.0 19.3 0.00 0.00 0.00 78 1011.9
20260506215506 17 349 9.7 20.9 0.00 0.00 0.00 77 1011.9
20260506215009 17 333 6.4 20.9 0.00 0.00 0.00 77 1012.0
20260506214524 18 306 9.7 20.9 0.00 0.00 0.00 76 1012.1
20260506214015 18 19 11.3 19.3 0.00 0.00 0.00 76 1012.2
20260506212507 18 294 8.0 20.9 0.00 0.00 0.00 76 1012.1
20260506212006 18 9 9.7 19.3 0.00 0.00 0.00 76 1012.1
20260506211515 18 360 9.7 17.7 0.00 0.00 0.00 75 1012.2
20260506211006 18 338 9.7 24.1 0.00 0.00 0.00 75 1012.1
20260506210506 18 284 8.0 24.1 0.00 0.00 0.00 76 1012.1
20260506210021 18 332 9.7 19.3 0.00 0.00 0.00 76 1012.3
20260506205511 18 18 8.0 19.3 0.00 0.00 0.00 75 1012.4
20260506205014 18 352 8.0 17.7 0.00 0.00 0.00 75 1012.3
20260506204525 18 306 9.7 22.5 0.00 0.00 0.00 75 1012.2
20260506204008 18 303 11.3 22.5 0.00 0.00 0.00 75 1012.0
20260506203509 19 344 8.0 17.7 0.00 0.00 0.00 76 1011.9
20260506203031 19 24 9.7 20.9 0.00 0.00 0.00 75 1011.8
20260506201516 19 348 8.0 20.9 0.00 0.00 0.00 77 1012.0
20260506201008 19 336 11.3 20.9 0.00 0.00 0.00 76 1012.0
20260506200511 19 322 12.9 20.9 0.00 0.00 0.00 77 1012.0
20260506200018 20 322 11.3 17.7 0.00 0.00 0.00 1012.1
20260506195509 20 327 9.7 24.1 0.00 0.00 0.00 1012.1
20260506195010 20 23 9.7 24.1 0.00 0.00 0.00 77 1012.0
20260506194522 21 341 9.7 19.3 0.00 0.00 0.00 77 1011.8
20260506194009 21 352 11.3 17.7 0.00 0.00 0.00 76 1011.9
20260506193512 21 28 8.0 19.3 0.00 0.00 0.00 76 1011.9
20260506193006 21 305 8.0 20.9 0.00 0.00 0.00 77 1011.8
20260506192503 22 335 9.7 20.9 0.00 0.00 0.00 76 1011.8
20260506192006 22 338 6.4 16.1 0.00 0.00 0.00 76 1011.8
20260506191514 22 294 6.4 17.7 0.00 0.00 0.00 75 1011.8
20260506191003 22 345 6.4 17.7 0.00 0.00 0.00 77 1011.7
20260506190506 22 352 6.4 19.3 0.00 0.00 0.00 76 1012.0
20260506190014 22 333 6.4 19.3 0.00 0.00 0.00 77 1011.9
20260506185506 23 333 8.0 14.5 0.00 0.00 0.00 74 1011.9
20260506185003 23 342 3.2 12.9 0.00 0.00 0.00 77 1011.8
20260506184503 22 9 4.8 12.9 0.00 0.00 0.00 76 1011.7
20260506184005 22 325 4.8 12.9 0.00 0.00 0.00 76 1011.6
20260506183503 22 325 3.2 12.9 0.00 0.00 0.00 79 1011.4
20260506183010 22 303 1.6 12.9 0.00 0.00 0.00 77 1011.2
20260506182502 21 18 1.6 8.0 0.00 0.00 0.00 79 1011.0
20260506182008 21 26 1.6 8.0 0.00 0.00 0.00 80 1011.1
20260506181508 21 24 4.8 11.3 0.00 0.00 0.00 81 1011.1
20260506181008 20 5 4.8 11.3 0.00 0.00 0.00 79 1011.4
20260506180506 20 344 3.2 12.9 0.00 0.00 0.00 80 1011.4
20260506180006 20 304 3.2 11.3 0.00 0.00 0.00 81 1011.2
20260506175507 20 360 3.2 12.9 0.00 0.00 0.00 81 1011.3
20260506175006 19 41 4.8 16.1 0.00 0.00 0.00 82 1011.3
20260506174520 18 302 4.8 16.1 0.00 0.00 0.00 83 1011.2
20260506174002 18 31 8.0 19.3 0.00 0.00 0.00 84 1011.2
20260506173506 18 346 8.0 19.3 0.00 0.00 0.00 85 1011.4
20260506173008 18 93 6.4 14.5 0.00 0.00 0.00 86 1011.5
20260506172504 17 51 4.8 14.5 0.00 0.00 0.00 88 1011.7
20260506172003 16 31 8.0 19.3 0.00 0.00 0.00 87 1011.8
20260506171512 16 37 11.3 20.9 0.00 0.00 0.00 89 1011.9
20260506171006 16 32 9.7 20.9 0.00 0.00 0.00 87 1012.2
20260506170505 16 18 9.7 17.7 0.00 0.00 0.00 88 1012.5
20260506170016 16 13 8.0 25.7 0.00 0.00 0.00 90 1012.2
20260506165506 16 34 14.5 25.7 0.00 0.00 0.00 90 1012.1
20260506165003 15 10 12.9 20.9 0.00 0.00 0.00 90 1012.4
20260506164515 15 352 8.0 17.7 0.00 0.00 0.00 91 1012.9
20260506164009 15 40 8.0 25.7 0.00 0.00 0.00 91 1013.3
20260506163514 15 350 9.7 25.7 0.00 0.00 0.00 91 1013.8
20260506162502 15 26 12.9 24.1 0.00 0.00 0.00 91 1013.9
20260506162008 15 348 8.0 19.3 0.00 0.00 0.00 91 1014.0
20260506161504 16 319 8.0 19.3 0.00 0.00 0.00 91 1014.0
20260506161003 16 337 6.4 24.1 0.00 0.00 0.00 91 1014.1
20260506160506 16 340 9.7 25.7 0.00 0.00 0.00 90 1013.9
20260506160016 16 20 11.3 25.7 0.00 0.00 0.00 90 1013.7
20260506155505 16 352 6.4 25.7 0.00 0.00 0.00 90 1013.6
20260506155007 17 347 12.9 25.7 0.00 0.00 0.00 90 1013.5
20260506154520 17 5 6.4 20.9 0.00 0.00 0.00 90 1013.3
20260506154006 17 23 4.8 22.5 0.00 0.00 0.00 90 1012.8
20260506153505 17 344 11.3 22.5 0.00 0.00 0.00 90 1012.4
20260506153018 17 345 9.7 19.3 0.00 0.00 0.00 89 1012.3
20260506152509 18 307 6.4 25.7 0.00 0.00 0.00 89 1012.1
20260506151506 19 26 14.5 25.7 0.00 0.00 0.00 86 1011.8
20260506151007 20 306 8.0 20.9 0.00 0.00 0.00 84 1011.8
20260506150504 21 5 11.3 20.9 0.00 0.00 0.00 82 1011.5
20260506150012 23 344 6.4 17.7 0.00 0.00 0.00 80 1011.3
20260506145512 25 150 1.6 8.0 0.00 0.00 0.00 86 1011.1
20260506145006 25 203 3.2 8.0 0.00 0.00 0.00 86 1011.0
20260506144512 25 150 3.2 8.0 0.00 0.00 0.00 86 1010.8
20260506144008 25 176 6.4 8.0 0.00 0.00 0.00 86 1010.6
20260506143509 25 154 1.6 11.3 0.00 0.00 0.00 87 1010.7
20260506143007 25 165 4.8 11.3 0.00 0.00 0.00 86 1010.7
20260506142508 25 188 3.2 9.7 0.00 0.00 0.00 87 1010.6
20260506142009 25 167 3.2 9.7 0.00 0.00 0.00 87 1010.8
20260506141524 25 167 3.2 9.7 0.00 0.00 0.00 87 1010.8
20260506140504 25 173 4.8 9.7 0.00 0.00 0.00 88 1010.3
20260506140008 24 205 4.8 8.0 0.00 0.00 0.00 88 1010.2
20260506135504 24 151 4.8 8.0 0.00 0.00 0.00 88 1010.2
20260506135006 24 134 4.8 9.7 0.00 0.00 0.00 88 1010.2
20260506134514 24 141 4.8 9.7 0.00 0.00 0.00 88 1010.2
20260506134009 24 131 1.6 8.0 0.00 0.00 0.00 89 1010.1
20260506133506 24 126 4.8 8.0 0.00 0.00 0.00 89 1010.0
20260506133029 24 149 3.2 6.4 0.00 0.00 0.00 90 1010.1
20260506132509 23 167 3.2 6.4 0.00 0.00 0.00 90 1010.1
20260506132008 23 175 1.6 4.8 0.00 0.00 0.00 91 1010.1
20260506131517 23 173 1.6 6.4 0.00 0.00 0.00 91 1010.0